Location: Home
(40.5300°N, 105.0300°W)
Time: 12:31:15
(UTC-06:00)

STARLINK-2691 - Visible Passes

Search period start: 21 October 2021 00:00
Search period end: 31 October 2021 00:00
Orbit: 546 x 548 km, 53.1° (Epoch: 21 October)

Date Brightness Start Highest point End Pass type
(mag) Time Alt. Az. Time Alt. Az. Time Alt. Az.
24 Oct 4.9 06:50:44 10° SSW 06:54:37 43° SE 06:58:32 10° ENE visible
25 Oct 4.3 06:44:14 10° SW 06:48:17 59° SE 06:52:20 10° ENE visible
26 Oct 6.7 05:02:21 10° SE 05:03:04 10° ESE 05:03:47 10° ESE visible
26 Oct 3.7 06:37:50 10° SW 06:41:57 80° SE 06:46:04 10° NE visible
27 Oct 6.3 04:55:14 13° SSE 04:56:37 15° SE 04:58:55 10° E visible
27 Oct 3.5 06:31:32 10° SW 06:35:38 78° NW 06:39:46 10° NE visible
28 Oct 5.9 04:50:12 20° SE 04:50:12 20° SE 04:53:12 10° E visible
28 Oct 3.7 06:25:52 14° WSW 06:29:22 59° NW 06:33:26 10° NE visible
29 Oct 5.8 04:44:57 23° ESE 04:44:57 23° ESE 04:47:15 10° ENE visible
29 Oct 4.0 06:20:35 20° W 06:23:06 46° NNW 06:27:06 10° NE visible
30 Oct 6.0 04:39:31 21° E 04:39:31 21° E 04:41:10 10° ENE visible
30 Oct 4.3 06:15:09 25° WNW 06:16:53 37° NNW 06:20:44 10° NE visible
